Pineville, WV

4:41 PM EDT on May 29, 2017 (GMT -0400)
Pineville

Weather History for KI16 - August, 2013

Change the Weather History Date:

Friday, August 9, 2013

  Actual Average (KBKW) Record (KBKW)
Temperature  
Mean Temperature 78 °F -  
Max Temperature 87 °F 79 °F 94 °F (1896)
Min Temperature 69 °F 61 °F 44 °F (1989)
Cooling Degree Days 13    
Growing Degree Days 28 (Base 50)    
Moisture  
Dew Point 73 °F    
Average Humidity 90    
Maximum Humidity 100    
Minimum Humidity 62    
Precipitation  
Precipitation 0.00 in - - ()
Sea Level Pressure  
Sea Level Pressure 30.11 in    
Wind  
Wind Speed - (North)    
Max Wind Speed -    
Max Gust Speed -    
Visibility 6 miles    
Events Rain    
Averages and records for this station are not official NWS values.
T = Trace of Precipitation, MM = Missing Value Source: NWS Daily Summary

Daily Weather History Graph

Daily Weather History Graph

Search for Another Location

Airport or City:

Trip Planner

Search our weather history database for the weather conditions in past years. The results will help you decide how hot, cold, wet, or windy it might be!

Date:

Astronomy

Aug. 09, 2013 Rise Set
Actual Time 6:37 AM EDT 8:25 PM EDT
Civil Twilight 6:08 AM EDT 8:53 PM EDT
Nautical Twilight 5:34 AM EDT 9:28 PM EDT
Astronomical Twilight 4:57 AM EDT 10:04 PM EDT
Moon 9:17 AM EDT (8/9) 9:39 PM EDT (8/9)
Length of Visible Light 14h 45m
Length of Day
13h 48m
Waxing Crescent, 7% of the Moon is Illuminated
Aug 9
Waxing Crescent
Aug 14
First Quarter
Aug 20
Full
Aug 28
Last Quarter
Sep 5
New

Hourly Weather History & Observations

Time (EDT) Temp. Heat Index Dew Point Humidity Pressure Visibility Wind Dir Wind Speed Gust Speed Precip Events Conditions
12:15 AM 71.1 °F - 71.1 °F 100% 30.09 in 2.0 mi North - - N/A   Mist
12:35 AM 71.1 °F - 71.1 °F 100% 30.09 in 3.0 mi North - - N/A   Overcast
12:55 AM 71.1 °F - 71.1 °F 100% 30.09 in 3.0 mi North - - N/A   Overcast
1:15 AM 70.9 °F - 70.9 °F 100% 30.08 in 2.5 mi North - - N/A   Mostly Cloudy
1:35 AM 70.7 °F - 70.7 °F 100% 30.08 in 4.0 mi North - - N/A   Mostly Cloudy
1:55 AM 70.3 °F - 70.3 °F 100% 30.08 in 1.5 mi North - - N/A   Mostly Cloudy
2:15 AM 69.8 °F - 69.8 °F 100% 30.08 in 1.5 mi North - - N/A   Overcast
2:35 AM 70.0 °F - 70.0 °F 100% 30.08 in 1.5 mi North - - N/A   Overcast
2:55 AM 69.8 °F - 69.8 °F 100% 30.08 in 0.8 mi North - - N/A   Overcast
3:15 AM 69.8 °F - 69.8 °F 100% 30.08 in 1.0 mi North - - N/A   Overcast
3:35 AM 69.1 °F - 69.1 °F 100% 30.08 in 1.5 mi North - - N/A   Overcast
3:55 AM 69.3 °F - 69.3 °F 100% 30.09 in 2.5 mi North - - N/A   Overcast
4:15 AM 69.3 °F - 69.3 °F 100% 30.08 in 2.0 mi North - - N/A   Overcast
4:35 AM 69.1 °F - 69.1 °F 100% 30.09 in 3.0 mi North - - N/A   Overcast
4:55 AM 69.3 °F - 69.3 °F 100% 30.09 in 4.0 mi North - - N/A   Overcast
5:15 AM 69.4 °F - 69.4 °F 100% 30.09 in 4.0 mi North - - N/A   Overcast
5:35 AM 69.6 °F - 69.6 °F 100% 30.09 in 3.0 mi North - - N/A   Overcast
5:55 AM 69.8 °F - 69.8 °F 100% 30.09 in 3.0 mi North - - N/A   Overcast
6:15 AM 69.8 °F - 69.8 °F 100% 30.10 in 3.0 mi North - - N/A   Overcast
6:35 AM 69.4 °F - 69.4 °F 100% 30.10 in 3.0 mi North - - N/A   Overcast
6:55 AM 69.3 °F - 69.3 °F 100% 30.11 in 3.0 mi North - - N/A   Overcast
7:15 AM 69.8 °F - 69.8 °F 100% 30.12 in 3.0 mi North - - N/A   Overcast
7:35 AM 70.2 °F - 70.2 °F 100% 30.12 in 4.0 mi North - - N/A   Overcast
7:55 AM 70.9 °F - 70.9 °F 100% 30.12 in 4.0 mi North - - N/A   Overcast
8:15 AM 71.4 °F - 71.4 °F 100% 30.12 in 3.0 mi North - - N/A   Overcast
8:35 AM 72.1 °F - 72.1 °F 100% 30.13 in 5.0 mi North - - N/A   Overcast
8:55 AM 73.2 °F - 73.2 °F 100% 30.13 in 5.0 mi North - - N/A   Overcast
9:15 AM 75.2 °F - 75.2 °F 100% 30.13 in 10.0 mi North - - N/A   Overcast
9:35 AM 76.1 °F - 74.3 °F 94% 30.13 in 10.0 mi North - - N/A   Overcast
9:55 AM 77.2 °F - 73.2 °F 88% 30.14 in 10.0 mi North - - N/A   Overcast
10:15 AM 77.2 °F - 73.2 °F 88% 30.14 in 10.0 mi North - - N/A   Overcast
10:35 AM 77.9 °F - 73.2 °F 85% 30.14 in 10.0 mi North - - N/A   Overcast
10:55 AM 78.3 °F - 73.0 °F 84% 30.14 in 10.0 mi North - - N/A   Overcast
11:15 AM 78.4 °F - 73.6 °F 85% 30.14 in 10.0 mi North - - N/A   Overcast
11:35 AM 77.7 °F - 73.0 °F 85% 30.14 in 10.0 mi North - - N/A   Overcast
11:55 AM 77.5 °F - 73.4 °F 87% 30.14 in 10.0 mi North - - N/A   Overcast
12:15 PM 78.3 °F - 73.4 °F 85% 30.15 in 10.0 mi North - - N/A   Overcast
12:35 PM 79.3 °F - 73.0 °F 81% 30.14 in 10.0 mi North - - N/A   Overcast
12:55 PM 81.1 °F 86.0 °F 72.9 °F 76% 30.13 in 10.0 mi North - - N/A   Mostly Cloudy
1:15 PM 81.5 °F 86.7 °F 73.4 °F 76% 30.13 in 10.0 mi North - - N/A   Mostly Cloudy
1:35 PM 83.3 °F 89.9 °F 73.9 °F 73% 30.12 in 10.0 mi North - - N/A   Mostly Cloudy
1:55 PM 84.2 °F 90.9 °F 73.6 °F 70% 30.12 in 10.0 mi North - - N/A   Scattered Clouds
2:15 PM 82.6 °F 89.1 °F 74.5 °F 76% 30.12 in 10.0 mi North - - N/A   Mostly Cloudy
2:35 PM 83.1 °F 90.1 °F 74.5 °F 75% 30.11 in 10.0 mi North - - N/A   Mostly Cloudy
2:55 PM 85.1 °F 92.9 °F 74.5 °F 70% 30.11 in 10.0 mi North - - N/A   Mostly Cloudy
3:15 PM 84.4 °F 92.0 °F 74.3 °F 72% 30.11 in 10.0 mi North - - N/A   Mostly Cloudy
3:35 PM 85.5 °F 93.0 °F 73.9 °F 68% 30.10 in 10.0 mi North - - N/A   Mostly Cloudy
3:55 PM 85.8 °F 94.2 °F 74.5 °F 69% 30.09 in 10.0 mi North - - N/A   Scattered Clouds
4:15 PM 87.6 °F 96.2 °F 74.1 °F 64% 30.08 in 10.0 mi North - - N/A   Scattered Clouds
4:35 PM 87.8 °F 96.6 °F 74.1 °F 64% 30.08 in 10.0 mi North - - N/A   Scattered Clouds
4:55 PM 87.8 °F 95.6 °F 73.4 °F 62% 30.08 in 10.0 mi North - - N/A   Scattered Clouds
5:15 PM 84.7 °F 93.6 °F 75.6 °F 74% 30.08 in 10.0 mi North - - N/A   Scattered Clouds
5:35 PM 84.9 °F 92.1 °F 73.6 °F 69% 30.09 in 10.0 mi North - - N/A   Scattered Clouds
5:55 PM 81.5 °F 86.7 °F 73.4 °F 76% 30.09 in 10.0 mi North - - N/A   Mostly Cloudy
6:15 PM 81.9 °F 87.7 °F 74.1 °F 77% 30.08 in 10.0 mi North - - N/A   Scattered Clouds
6:35 PM 81.5 °F 87.6 °F 74.7 °F 80% 30.08 in 10.0 mi North - - N/A   Scattered Clouds
6:55 PM 80.1 °F 85.2 °F 75.4 °F 86% 30.09 in 10.0 mi North - - N/A   Clear
7:15 PM 80.8 °F 86.5 °F 75.2 °F 83% 30.09 in 10.0 mi North - - N/A   Clear
7:35 PM 78.3 °F - 75.4 °F 91% 30.09 in 10.0 mi North - - N/A   Clear
7:55 PM 78.1 °F - 75.6 °F 92% 30.10 in 10.0 mi North - - N/A   Scattered Clouds
8:15 PM 77.9 °F - 75.4 °F 92% 30.11 in 10.0 mi North - - N/A   Scattered Clouds
8:35 PM 77.2 °F - 75.4 °F 94% 30.12 in 10.0 mi North - - N/A   Scattered Clouds
8:55 PM 76.8 °F - 74.5 °F 92% 30.13 in 2.5 mi North - - N/A Rain Heavy Rain
9:15 PM 74.7 °F - 73.8 °F 97% 30.13 in 5.0 mi North - - N/A Rain Light Rain
9:35 PM 74.3 °F - 74.1 °F 99% 30.13 in 4.0 mi North - - N/A Rain Light Rain
9:55 PM 73.8 °F - 73.8 °F 100% 30.14 in 2.0 mi North - - N/A Rain Rain
10:15 PM 73.4 °F - 73.4 °F 100% 30.14 in 4.0 mi North - - N/A   Mostly Cloudy
10:35 PM 72.9 °F - 72.9 °F 100% 30.14 in 3.0 mi North - - N/A   Overcast
10:55 PM 72.7 °F - 72.7 °F 100% 30.15 in 2.5 mi North - - N/A   Overcast
11:15 PM 72.5 °F - 72.5 °F 100% 30.16 in 2.5 mi North - - N/A   Overcast
11:35 PM 72.5 °F - 72.5 °F 100% 30.17 in 1.0 mi North - - N/A   Overcast
11:55 PM 72.5 °F - 72.5 °F 100% 30.16 in 2.5 mi North - - N/A   Mostly Cloudy